SL-8 DEB, 1335

Orbit data source: Space-Track

SL-8 DEB, 1335 is space debris in LEO originally from a launch on Mon, 15 Mar 1965 UTC launched from the Tyuratam Missile And Space Complex (TTMTR). Debris objects in space refer to the collection of defunct objects orbiting the Earth. Examples of debris include non-operational satellites, rocket bodies, and fragments generated from explosions, collisions, or faulty payload assembly.

Loading next visibility...
SL-8 DEB details
Identifier
1335, 1965-020E
Orbit
LEO
Last TLE update14 hours ago
Origin
Flag of CISRVSN (CIS)
ManufacturerUnknown
MissionSpacecraft
Bus & MotorUnknown
MassUnknown
Launch date (UTC)
1965-03-15 (60 years ago)
Launch vehicleUnknown
Launch site
Tyuratam Missile And Space Complex (TTMTR)
Object type
Payload
Rocket body
Debris
Shape & HBRUnknown
Radar Cross SectionMedium (>0.1 m² and <1 m²)

Expand to show TLE details & history

TLE from 14 hours ago
0 SL-8 DEB
1 01335U 65020E   25018.21011130  .00005499  00000-0  16173-2 0  9997
2 01335  56.0782 302.2700 0532056 339.1122  18.8819 13.85170187938565
Epoch: 2025-01-18T05:02Z
Definitive object data (Epoch: 2025-01-18T05:02:33.616Z)
Latitude-0.00007°
Longitude108.76722°
Altitude580.394 km
Speed7.758 km/s
True Right ascension20h 09m 04s
True Declination0° 00' 00"
Sunlit
Object was in daylight at TLE epoch
Visualization TLE readout
Latitude-23.25389°
Longitude90.09284°
Altitude566.489 km
Speed7.775 km/s
Apparent Right ascension16h 48m 42s
Apparent Declination-74° 45' 12"
Sunlit
Object is in daylight
Visualization observer readout
Local Sidereal Time19:39:51
Azimuth191.684° SSW
Elevation-28.104°
Doppler factor1
Orbital elements
Apogee altitude1,335.066 km
Perigee altitude555.758 km
Semi-major axis7,323.549 km
Eccentricity0.0532056
Inclination56.0782°
RAAN302.27°
Arg. of periapsis339.1122°
True anomaly20.98661°
Mean anomaly18.8819°
Eccentric anomaly19.92056°
Mean motion3.46307 °/min
BSTAR0.0016173
Orbital period103.95 mins
Loading maneuver chart data...
Loading historical data...
Loading historical data...
Loading historical data...
Loading historical data...
Loading historical data...
Loading historical data...
Loading historical data...

SL-8 DEB Visibility forecast

Observer location: undefined°, undefined

Span
Click to sort rows by Start time (UTC) header in descending order
Start Az.
Max El. time (UTC)
Max El. Az.
Max El.
End time (UTC)
End Az.
9 mins2025-01-18 20:46:37.853Z199.618° SSW2025-01-18 20:50:37.853Z112.953° SE38.28°2025-01-18 20:55:37.853Z53.278° ENE
8 mins2025-01-18 22:35:37.853Z278.771° WNW2025-01-18 22:38:37.853Z329.511° NNW29.943°2025-01-18 22:43:37.853Z32.173° NE
8 mins2025-01-19 00:25:37.853Z320.59° NNW2025-01-19 00:28:37.853Z353.877° N18.945°2025-01-19 00:33:37.853Z40.092° NE
10 mins2025-01-19 02:15:37.853Z338.382° N2025-01-19 02:19:37.853Z23.81° NE24.226°2025-01-19 02:25:37.853Z74.511° E
14 mins2025-01-19 04:02:37.853Z320.754° NNW2025-01-19 04:08:37.853Z26.945° NE41.901°2025-01-19 04:16:37.853Z120.696° SE
13 mins2025-01-19 05:51:37.853Z295.472° NW2025-01-19 05:57:37.853Z231.106° WSW32.211°2025-01-19 06:04:37.853Z172.798° S
|